"Pseudo-MPEC" for CER27D2

Created 2026 Sep 5 10:35:08 UT using Find_Orb

Click here for an explanation of pseudo-MPECs

 
 Astrometry: 
     CER27D2*1C2026 09 05.16431921 10 21.090-04 13 13.12   ~954o 20.39GVNEOCPG96
     CER27D2 1C2026 09 05.16998321 10 28.240-04 14 09.38   ~954o       VNEOCPG96
     CER27D2 1C2026 09 05.17566021 10 35.486-04 15 06.01   ~954o 20.33GVNEOCPG96
     CER27D2 1C2026 09 05.18134821 10 42.726-04 16 03.72   ~954o 20.50GVNEOCPG96
     CER27D2 1C2026 09 05.19814821 11 03.851-04 18 49.86   ~9555 20.28GVNEOCPV06
     CER27D2 1C2026 09 05.19879321 11 04.661-04 18 56.23   ~9555 20.45GVNEOCPV06
     CER27D2 1C2026 09 05.19943921 11 05.474-04 19 02.64   ~9555 20.33GVNEOCPV06
     CER27D2 1C2026 09 05.20008521 11 06.281-04 19 08.94   ~9555 20.37GVNEOCPV06
     CER27D2 !C2026 09 05.22110021 11 33.958-04 22 41.41   ~955Z 20.5 GWNEOCP673
     CER27D2 1C2026 09 05.22431221 11 36.654-04 23 08.05   ~955Z 20.38GVNEOCPV06
     CER27D2 1C2026 09 05.22485321 11 37.331-04 23 13.42   ~955Z 20.49GVNEOCPV06
     CER27D2 1C2026 09 05.22539521 11 37.993-04 23 18.67   ~955Z 20.45GVNEOCPV06
     CER27D2 !C2026 09 05.22545121 11 39.389-04 23 23.68   ~955Z 19.7 GWNEOCP673
     CER27D2 1C2026 09 05.22593521 11 38.670-04 23 23.93   ~955Z 20.43GVNEOCPV06
     CER27D2  C2026 09 05.32799021 13 44.939-04 39 58.83   ~958Z 20.2 GWNEOCPH01
     CER27D2  C2026 09 05.33155521 13 49.379-04 40 32.97   ~958Z 20.1 GWNEOCPH01
     CER27D2  C2026 09 05.34198621 14 02.335-04 42 12.75   ~958Z 20.1 GWNEOCPH01
     CER27D2  C2026 09 05.34928821 14 11.420-04 43 22.43   ~958Z 20.3 GWNEOCPH01

Station data:
(673) Table Mountain Observatory, Wrightwood  (N34.381485 W117.682170)
   US/California.  Observers J. Chesley, J. Pittichova. Measurer W. M. Owen
   Jr. 0.61-m f/16 reflector + CCD.
(G96) Mt. Lemmon Survey  (N32.442729 W110.788720)
   US/Arizona.  Observer E. J. Christensen. Measurers T. Beuden, V. F.
   Carvajal, D. Fay, J. B. Fazekas, D. C. Fuls, A. R. Gibbs, A. D. Grauer, H.
   Gröller, J. K. Hogan, R. A. Kowalski, S. M. Larson, G. J. Leonard, D.
   Rankin, R. L. Seaman, F. C. Shelly, K. W. Wierzchoś. 1.5-m reflector + 10K
   CCD.
(H01) Magdalena Ridge Observatory, Socorro  (N33.984833 W107.189333)  US/New
   Mexico.  Observers W. H. Ryan, E. V. Ryan. Measurer W. H. Ryan. 2.4-m
   f/8.9 reflector + CCD.
(V06) Catalina Sky Survey-Kuiper  (N32.416871 W110.732550)  US/Arizona.
   Measurers T. Beuden, V. F. Carvajal, D. Fay, J. B. Fazekas, D. C. Fuls, A.
   R. Gibbs, A. D. Grauer, H. Gröller, J. K. Hogan, R. A. Kowalski, S. M.
   Larson, G. J. Leonard, D. Rankin, R. L. Seaman, F. C. Shelly, K. W.
   Wierzchoś. 1.55-m reflector + CCD.

Orbital elements:  CER27D2
   Perihelion 2026 Jul 20.199854 +/- 0.654 TT =  4:47:47.3 (JD 2461241.699854)
Epoch 2026 Sep  5.0 TT = JDT 2461288.5   Earth MOID: 0.0241   Ma: 0.0724
M  24.718681273 +/- 0.54            (J2000 ecliptic)             AutoNEOCP
n   0.528175298 +/- 0.00931         Peri.  119.209792 +/- 1.2
a   1.515714218 +/- 0.0178          Node   164.954075 +/- 0.020
e   0.39895874 +/- 0.00993          Incl.    7.514991 +/- 0.11
P   1.866/681.579d         H 26.14  G  0.15   U  9.6
q 0.911006782 +/- 0.00664    Q 2.120421655 +/- 0.0392
From 18 observations 2026 Sept. 5 (4.4 hr); mean residual 0".29
Residuals in arcseconds: 
260905 G96  .15-  .02+    260905 V06  .07+  .25-    260905 673  .09-  .76+    
260905 G96  .73-  .30+    260905 V06  .00   .16-    260905 V06  .15-  .01-    
260905 G96  .07+  .26+    260905 673  .23+  .16+    260905 H01  .22-  .00     
260905 G96  .75+  .82-    260905 V06  .04+  .10-    260905 H01  .02-  .00     
260905 V06  .08+  .26-    260905 V06  .05+  .15-    260905 H01  .02-  .07-    
260905 V06  .06+  .24-    260905 V06  .18-  .06-    260905 H01  .16+  .10-    

Ephemerides (geocentric):
Date (UTC) HH   RA             Dec           delta  r     elong  mag " sig PA
---- --------  ------------   ------------  ------ ------ -----  --- --------
2026 09 05 11  21 16 38.526   -04 58 37.64  .04479 1.0491 155.3 20.6 5.53  70
2026 09 05 12  21 17 31.085   -05 05 06.87  .04497 1.0493 155.5 20.6 6.66  75
2026 09 05 13  21 18 23.251   -05 11 32.77  .04515 1.0495 155.7 20.6 7.89  79
2026 09 05 14  21 19 15.027   -05 17 55.35  .04533 1.0498 155.9 20.6 9.22  83
2026 09 05 15  21 20 06.416   -05 24 14.65  .04551 1.0500 156.1 20.6 10.6  85
2026 09 05 16  21 20 57.421   -05 30 30.68  .04569 1.0502 156.3 20.6 12.1  88
2026 09 05 17  21 21 48.044   -05 36 43.47  .04587 1.0504 156.4 20.6 13.7  90
2026 09 05 18  21 22 38.289   -05 42 53.03  .04606 1.0506 156.6 20.6 15.4  91
2026 09 05 19  21 23 28.159   -05 48 59.41  .04624 1.0508 156.8 20.6 17.1  93
2026 09 05 20  21 24 17.656   -05 55 02.61  .04643 1.0510 157.0 20.6 18.9  94
2026 09 05 21  21 25 06.784   -06 01 02.66  .04661 1.0513 157.1 20.6 20.8  95
2026 09 05 22  21 25 55.544   -06 06 59.58  .04680 1.0515 157.3 20.7 22.7  96
2026 09 05 23  21 26 43.941   -06 12 53.40  .04699 1.0517 157.5 20.7 24.7  97
2026 09 06 00  21 27 31.976   -06 18 44.15  .04718 1.0519 157.6 20.7 26.7  98
2026 09 06 01  21 28 19.653   -06 24 31.84  .04736 1.0521 157.8 20.7 28.9  98
2026 09 06 02  21 29 06.975   -06 30 16.50  .04755 1.0523 158.0 20.7 31.0  99
2026 09 06 03  21 29 53.944   -06 35 58.15  .04774 1.0525 158.1 20.7 33.3 100
2026 09 06 04  21 30 40.563   -06 41 36.83  .04793 1.0528 158.3 20.7 35.5 100
2026 09 06 05  21 31 26.835   -06 47 12.54  .04813 1.0530 158.4 20.7 37.9 101
2026 09 06 06  21 32 12.764   -06 52 45.33  .04832 1.0532 158.6 20.7 40.3 101
2026 09 06 07  21 32 58.351   -06 58 15.20  .04851 1.0534 158.7 20.7 42.7 101
2026 09 06 08  21 33 43.599   -07 03 42.19  .04871 1.0536 158.9 20.7 45.2 102
2026 09 06 09  21 34 28.512   -07 09 06.32  .04890 1.0538 159.0 20.7 47.7 102
2026 09 06 10  21 35 13.091   -07 14 27.62  .04910 1.0541 159.2 20.7 50.3 103
2026 09 06 11  21 35 57.340   -07 19 46.10  .04929 1.0543 159.3 20.7 52.9 103
2026 09 06 12  21 36 41.262   -07 25 01.79  .04949 1.0545 159.5 20.7 55.5 103
2026 09 06 13  21 37 24.859   -07 30 14.72  .04968 1.0547 159.6 20.7 58.2 103
2026 09 06 14  21 38 08.134   -07 35 24.91  .04988 1.0549 159.7 20.7 61.0 104
2026 09 06 15  21 38 51.089   -07 40 32.38  .05008 1.0551 159.9 20.7 63.7 104
2026 09 06 16  21 39 33.728   -07 45 37.16  .05028 1.0553 160.0 20.7 66.5 104
2026 09 06 17  21 40 16.053   -07 50 39.27  .05048 1.0556 160.1 20.7 69.4 104
2026 09 06 18  21 40 58.066   -07 55 38.74  .05068 1.0558 160.3 20.7 72.2 105
2026 09 06 19  21 41 39.770   -08 00 35.59  .05088 1.0560 160.4 20.7 75.1 105
2026 09 06 20  21 42 21.169   -08 05 29.84  .05108 1.0562 160.5 20.8 78.1 105
2026 09 06 21  21 43 02.263   -08 10 21.51  .05128 1.0564 160.6 20.8 81.0 105
2026 09 06 22  21 43 43.057   -08 15 10.63  .05149 1.0566 160.8 20.8 84.0 105
2026 09 06 23  21 44 23.552   -08 19 57.23  .05169 1.0569 160.9 20.8 87.0 105
2026 09 07 00  21 45 03.752   -08 24 41.32  .05189 1.0571 161.0 20.8 90.1 106
2026 09 07 01  21 45 43.658   -08 29 22.93  .05210 1.0573 161.1 20.8 93.1 106
2026 09 07 02  21 46 23.273   -08 34 02.09  .05230 1.0575 161.2 20.8 96.2 106
2026 09 07 03  21 47 02.600   -08 38 38.80  .05251 1.0577 161.4 20.8   99 106
2026 09 07 04  21 47 41.641   -08 43 13.11  .05271 1.0579 161.5 20.8  102 106
2026 09 07 05  21 48 20.399   -08 47 45.02  .05292 1.0582 161.6 20.8  106 106
2026 09 07 06  21 48 58.876   -08 52 14.56  .05313 1.0584 161.7 20.8  109 106
2026 09 07 07  21 49 37.075   -08 56 41.76  .05333 1.0586 161.8 20.8  112 106
2026 09 07 08  21 50 14.997   -09 01 06.63  .05354 1.0588 161.9 20.8  115 107
2026 09 07 09  21 50 52.646   -09 05 29.20  .05375 1.0590 162.0 20.8  118 107
2026 09 07 10  21 51 30.023   -09 09 49.50  .05396 1.0593 162.1 20.8  122 107